TimeMDT,TemperatureF,Dew PointF,Humidity,Sea Level PressureIn,VisibilityMPH,Wind Direction,Wind SpeedMPH,Gust SpeedMPH,PrecipitationIn,Events,Conditions,WindDirDegrees,DateUTC
12:15 AM,62.4,31.3,31,30.14,10.0,Calm,Calm,-,N/A,,Clear,0,2013-07-22 06:15:00
12:35 AM,61.9,31.8,32,30.14,10.0,Calm,Calm,-,N/A,,Clear,0,2013-07-22 06:35:00
12:55 AM,61.2,31.8,33,30.14,10.0,ENE,3.5,-,N/A,,Clear,60,2013-07-22 06:55:00
1:15 AM,59.7,31.5,34,30.15,10.0,Calm,Calm,-,N/A,,Clear,0,2013-07-22 07:15:00
1:35 AM,59.5,31.3,34,30.15,10.0,Calm,Calm,-,N/A,,Clear,0,2013-07-22 07:35:00
1:55 AM,57.7,32.0,38,30.15,10.0,North,3.5,-,N/A,,Clear,350,2013-07-22 07:55:00
2:15 AM,57.0,31.3,38,30.16,10.0,Calm,Calm,-,N/A,,Clear,0,2013-07-22 08:15:00
2:35 AM,56.1,31.6,39,30.16,10.0,Calm,Calm,-,N/A,,Clear,0,2013-07-22 08:35:00
2:55 AM,55.9,31.8,40,30.16,10.0,Calm,Calm,-,N/A,,Clear,0,2013-07-22 08:55:00
3:15 AM,54.5,32.0,42,30.17,10.0,Calm,Calm,-,N/A,,Clear,0,2013-07-22 09:15:00
3:35 AM,55.0,31.5,41,30.17,10.0,Calm,Calm,-,N/A,,Clear,0,2013-07-22 09:35:00
3:55 AM,51.8,32.2,47,30.18,10.0,Calm,Calm,-,N/A,,Clear,0,2013-07-22 09:55:00
4:15 AM,51.1,31.6,47,30.18,10.0,Calm,Calm,-,N/A,,Clear,0,2013-07-22 10:15:00
4:35 AM,51.4,32.0,47,30.18,10.0,Calm,Calm,-,N/A,,Clear,0,2013-07-22 10:35:00
4:55 AM,50.9,32.0,48,30.18,10.0,Calm,Calm,-,N/A,,Clear,0,2013-07-22 10:55:00
5:15 AM,49.6,31.8,50,30.19,10.0,Calm,Calm,-,N/A,,Clear,0,2013-07-22 11:15:00
5:35 AM,48.9,31.1,50,30.20,10.0,Calm,Calm,-,N/A,,Clear,0,2013-07-22 11:35:00
5:55 AM,47.1,33.8,60,30.21,10.0,East,3.5,-,N/A,,Clear,80,2013-07-22 11:55:00
6:15 AM,44.8,32.9,63,30.22,10.0,Calm,Calm,-,N/A,,Clear,0,2013-07-22 12:15:00
6:35 AM,47.5,32.7,57,30.21,10.0,Calm,Calm,-,N/A,,Clear,0,2013-07-22 12:35:00
6:55 AM,48.2,33.1,56,30.23,10.0,NE,4.6,-,N/A,,Clear,50,2013-07-22 12:55:00
7:15 AM,50.7,32.7,50,30.23,10.0,Calm,Calm,-,N/A,,Clear,0,2013-07-22 13:15:00
7:35 AM,52.5,32.5,47,30.23,10.0,Calm,Calm,-,N/A,,Clear,0,2013-07-22 13:35:00
7:55 AM,54.9,33.3,44,30.24,10.0,Calm,Calm,-,N/A,,Clear,0,2013-07-22 13:55:00
8:14 AM,56.7,32.7,40,30.24,10.0,Calm,Calm,-,N/A,,Clear,0,2013-07-22 14:14:00
8:35 AM,59.0,31.1,35,30.24,10.0,Calm,Calm,-,N/A,,Clear,0,2013-07-22 14:35:00
8:55 AM,62.1,30.4,30,30.24,10.0,Calm,Calm,-,N/A,,Clear,0,2013-07-22 14:55:00
9:15 AM,63.7,30.4,29,30.24,10.0,Calm,Calm,-,N/A,,Clear,0,2013-07-22 15:15:00
9:35 AM,66.7,30.0,25,30.24,10.0,Calm,Calm,-,N/A,,Clear,0,2013-07-22 15:35:00
9:55 AM,69.1,29.7,23,30.24,10.0,Calm,Calm,-,N/A,,Clear,0,2013-07-22 15:55:00
10:15 AM,70.9,31.3,23,30.24,10.0,Calm,Calm,-,N/A,,Clear,0,2013-07-22 16:15:00
10:35 AM,75.4,30.2,19,30.24,10.0,Calm,Calm,-,N/A,,Clear,0,2013-07-22 16:35:00
10:55 AM,77.4,22.8,13,30.24,10.0,East,3.5,-,N/A,,Clear,90,2013-07-22 16:55:00
11:15 AM,79.7,13.3,8,30.23,10.0,ESE,3.5,-,N/A,,Clear,110,2013-07-22 17:15:00
11:35 AM,80.2,9.0,7,30.23,10.0,SSW,5.8,-,N/A,,Clear,200,2013-07-22 17:35:00
11:55 AM,81.9,10.4,7,30.23,10.0,West,3.5,-,N/A,,Clear,260,2013-07-22 17:55:00
12:15 PM,82.9,5.2,5,30.22,10.0,South,5.8,-,N/A,,Clear,170,2013-07-22 18:15:00
12:35 PM,84.7,4.5,5,30.21,10.0,Calm,Calm,-,N/A,,Clear,0,2013-07-22 18:35:00
12:55 PM,85.6,3.0,4,30.20,10.0,SSW,11.5,23.0,N/A,,Clear,210,2013-07-22 18:55:00
1:15 PM,86.5,-6.7,4,30.20,10.0,WSW,6.9,-,N/A,,Clear,240,2013-07-22 19:15:00
1:35 PM,87.3,-10.1,4,30.20,10.0,West,9.2,16.1,N/A,,Clear,260,2013-07-22 19:35:00
1:55 PM,87.6,-5.3,4,30.19,10.0,SW,10.4,18.4,N/A,,Clear,220,2013-07-22 19:55:00
2:15 PM,88.2,-5.1,4,30.18,10.0,SSW,5.8,17.3,N/A,,Clear,210,2013-07-22 20:15:00
2:35 PM,89.2,-6.5,4,30.18,10.0,WSW,9.2,20.7,N/A,,Clear,240,2013-07-22 20:35:00
2:55 PM,88.9,-4.4,4,30.17,10.0,SW,10.4,-,N/A,,Clear,220,2013-07-22 20:55:00
3:15 PM,90.1,-11.7,4,30.17,10.0,SW,9.2,-,N/A,,Clear,230,2013-07-22 21:15:00
3:35 PM,89.6,-20.9,4,30.17,10.0,SW,8.1,-,N/A,,Clear,220,2013-07-22 21:35:00
3:55 PM,-9999,-9999,N/A,30.16,10.0,WSW,5.8,16.1,N/A,,Clear,250,2013-07-22 21:55:00
4:15 PM,90.1,-12.5,4,30.15,10.0,SSW,8.1,17.3,N/A,,Clear,200,2013-07-22 22:15:00
4:35 PM,90.7,-12.1,4,30.15,10.0,West,5.8,-,N/A,,Clear,270,2013-07-22 22:35:00
4:55 PM,89.8,-9.2,4,30.14,10.0,South,9.2,-,N/A,,Clear,190,2013-07-22 22:55:00
5:15 PM,90.0,-10.8,4,30.14,10.0,SW,8.1,-,N/A,,Clear,230,2013-07-22 23:15:00
5:35 PM,90.5,-14.4,4,30.13,10.0,SW,6.9,-,N/A,,Clear,230,2013-07-22 23:35:00
5:55 PM,-9999,-9999,N/A,30.12,10.0,WSW,9.2,-,N/A,,Clear,250,2013-07-22 23:55:00
6:15 PM,90.0,-24.0,4,30.12,10.0,West,12.7,20.7,N/A,,Clear,270,2013-07-23 00:15:00
6:35 PM,89.6,-27.6,4,30.12,10.0,West,10.4,18.4,N/A,,Clear,270,2013-07-23 00:35:00
6:55 PM,88.5,-20.2,4,30.12,10.0,West,9.2,18.4,N/A,,Clear,270,2013-07-23 00:55:00
7:15 PM,87.6,-8.5,4,30.12,10.0,West,5.8,-,N/A,,Clear,270,2013-07-23 01:15:00
7:35 PM,85.5,1.8,4,30.12,10.0,West,5.8,-,N/A,,Clear,270,2013-07-23 01:35:00
7:55 PM,82.4,5.4,5,30.12,10.0,West,6.9,-,N/A,,Clear,280,2013-07-23 01:55:00
8:15 PM,80.2,9.3,7,30.13,10.0,Calm,Calm,-,N/A,,Clear,0,2013-07-23 02:15:00
8:35 PM,77.2,9.5,8,30.13,10.0,Calm,Calm,-,N/A,,Clear,0,2013-07-23 02:35:00
8:55 PM,75.7,12.7,9,30.14,10.0,Calm,Calm,-,N/A,,Clear,0,2013-07-23 02:55:00
9:15 PM,72.5,17.4,12,30.15,10.0,Calm,Calm,-,N/A,,Clear,0,2013-07-23 03:15:00
9:35 PM,69.4,21.0,16,30.16,10.0,Calm,Calm,-,N/A,,Clear,0,2013-07-23 03:35:00
9:55 PM,69.4,16.2,13,30.17,10.0,Calm,Calm,-,N/A,,Clear,0,2013-07-23 03:55:00
10:15 PM,66.4,17.6,15,30.17,10.0,Calm,Calm,-,N/A,,Clear,0,2013-07-23 04:15:00
10:35 PM,65.3,15.8,15,30.18,10.0,East,5.8,-,N/A,,Clear,80,2013-07-23 04:35:00
10:55 PM,64.6,19.2,18,30.18,10.0,ENE,4.6,-,N/A,,Clear,60,2013-07-23 04:55:00
11:15 PM,64.8,20.7,19,30.18,10.0,East,4.6,-,N/A,,Clear,80,2013-07-23 05:15:00
11:35 PM,61.2,26.2,26,30.19,10.0,ESE,4.6,-,N/A,,Clear,120,2013-07-23 05:35:00
11:55 PM,59.2,26.1,28,30.20,10.0,ESE,5.8,-,N/A,,Clear,120,2013-07-23 05:55:00